Weather History for Bigfork, MN

Change the Weather History Date:

Saturday, October 15, 2011

  Actual Average (KGPZ) Record (KGPZ)
Temperature  
Mean Temperature 44 °F -  
Max Temperature 51 °F 54 °F 80 °F (1929)
Min Temperature 37 °F 33 °F 14 °F (1937)
Degree Days  
Heating Degree Days 21    
Moisture  
Dew Point 30 °F    
Average Humidity 56    
Maximum Humidity 76    
Minimum Humidity 43    
Precipitation  
Precipitation 0.00 in - - ()
Sea Level Pressure  
Sea Level Pressure 29.73 in    
Wind  
Wind Speed 8 mph (West)    
Max Wind Speed 17 mph    
Max Gust Speed 25 mph    
Visibility 10 miles    
Events      
Averages and records for this station are not official NWS values.
T = Trace of Precipitation, MM = Missing Value Source: NWS Daily Summary

Daily Weather History Graph

Daily Weather History Graph

Search for Another Location

Airport:

Trip Planner

Search our weather history database for the weather conditions in past years. The results will help you decide how hot, cold, wet, or windy it might be!

Date:

Astronomy

Oct. 15, 2011 Rise Set
Actual Time 7:33 AM CDT 6:26 PM CDT
Civil Twilight 7:02 AM CDT 6:57 PM CDT
Nautical Twilight 6:26 AM CDT 7:33 PM CDT
Astronomical Twilight 5:50 AM CDT 8:09 PM CDT
Moon 8:05 PM CDT (10/15) 11:16 AM CDT (10/15)
Length of Visible Light 11h 55m
Length of Day
10h 53m
Waning Gibbous, 89% of the Moon is Illuminated
Oct 15
Waning Gibbous
Oct 19
Last Quarter
Oct 26
New
Nov 2
First Quarter
Nov 10
Full

Hourly Weather History & Observations

Time (CDT) Temp. Windchill Dew Point Humidity Pressure Visibility Wind Dir Wind Speed Gust Speed Precip Events Conditions
12:14 AM 42.8 °F 38.0 °F 28.4 °F 57% 29.71 in 10.0 mi WNW 8.1 mph - N/A   Overcast
12:34 AM 42.8 °F 38.0 °F 28.4 °F 57% 29.71 in 10.0 mi WNW 8.1 mph - N/A   Mostly Cloudy
12:55 AM 42.8 °F 38.6 °F 28.4 °F 57% 29.72 in 10.0 mi WNW 6.9 mph 17.3 mph N/A   Scattered Clouds
1:14 AM 41.0 °F 35.8 °F 28.4 °F 61% 29.72 in 10.0 mi WNW 8.1 mph - N/A   Scattered Clouds
1:34 AM 41.0 °F 36.4 °F 28.4 °F 61% 29.72 in 10.0 mi WNW 6.9 mph - N/A   Clear
1:54 AM 41.0 °F 34.7 °F 28.4 °F 61% 29.72 in 10.0 mi WNW 10.4 mph 19.6 mph N/A   Clear
2:14 AM 41.0 °F 37.1 °F 28.4 °F 61% 29.73 in 10.0 mi WNW 5.8 mph - N/A   Clear
2:34 AM 41.0 °F 36.4 °F 28.4 °F 61% 29.73 in 10.0 mi WNW 6.9 mph - N/A   Clear
2:54 AM 39.2 °F 33.0 °F 28.4 °F 65% 29.73 in 10.0 mi WNW 9.2 mph - N/A   Scattered Clouds
3:14 AM 41.0 °F 37.1 °F 28.4 °F 61% 29.73 in 10.0 mi WNW 5.8 mph - N/A   Mostly Cloudy
3:34 AM 41.0 °F 38.0 °F 28.4 °F 61% 29.73 in 10.0 mi WNW 4.6 mph - N/A   Overcast
3:54 AM 42.8 °F 40.1 °F 28.4 °F 57% 29.73 in 10.0 mi NW 4.6 mph - N/A   Overcast
4:14 AM 42.8 °F 37.0 °F 28.4 °F 57% 29.73 in 10.0 mi WNW 10.4 mph - N/A   Overcast
4:34 AM 42.8 °F 40.1 °F 28.4 °F 57% 29.73 in 10.0 mi WNW 4.6 mph 16.1 mph N/A   Overcast
4:54 AM 42.8 °F 38.6 °F 28.4 °F 57% 29.73 in 10.0 mi WNW 6.9 mph - N/A   Overcast
5:14 AM 42.8 °F 40.1 °F 26.6 °F 53% 29.74 in 10.0 mi WNW 4.6 mph - N/A   Overcast
5:34 AM 42.8 °F 38.6 °F 26.6 °F 53% 29.74 in 10.0 mi West 6.9 mph - N/A   Overcast
5:55 AM 42.8 °F 40.1 °F 28.4 °F 57% 29.74 in 10.0 mi West 4.6 mph - N/A   Overcast
6:14 AM 42.8 °F 38.0 °F 28.4 °F 57% 29.74 in 10.0 mi West 8.1 mph - N/A   Overcast
6:34 AM 41.0 °F 37.1 °F 28.4 °F 61% 29.74 in 10.0 mi West 5.8 mph - N/A   Overcast
6:54 AM 41.0 °F 37.1 °F 28.4 °F 61% 29.74 in 10.0 mi West 5.8 mph - N/A   Overcast
7:14 AM 39.2 °F 35.0 °F 28.4 °F 65% 29.74 in 10.0 mi West 5.8 mph - N/A   Scattered Clouds
7:34 AM 37.4 °F 34.9 °F 28.4 °F 70% 29.74 in 10.0 mi West 3.5 mph - N/A   Clear
8:14 AM 37.4 °F 32.8 °F 30.2 °F 75% 29.74 in 10.0 mi WSW 5.8 mph - N/A   Mostly Cloudy
8:34 AM 39.2 °F 34.2 °F 30.2 °F 70% 29.74 in 10.0 mi WSW 6.9 mph - N/A   Overcast
8:54 AM 39.2 °F 35.9 °F 30.2 °F 70% 29.74 in 10.0 mi West 4.6 mph - N/A   Overcast
9:14 AM 39.2 °F 35.0 °F 30.2 °F 70% 29.74 in 10.0 mi West 5.8 mph - N/A   Overcast
9:34 AM 41.0 °F 36.4 °F 33.8 °F 76% 29.74 in 10.0 mi West 6.9 mph - N/A   Mostly Cloudy
9:55 AM 44.6 °F 39.7 °F 33.8 °F 66% 29.74 in 10.0 mi West 9.2 mph - N/A   Scattered Clouds
10:14 AM 44.6 °F 38.8 °F 33.8 °F 66% 29.74 in 10.0 mi West 11.5 mph 21.9 mph N/A   Clear
10:34 AM 46.4 °F 42.4 °F 33.8 °F 62% 29.73 in 10.0 mi WNW 8.1 mph 18.4 mph N/A   Scattered Clouds
10:54 AM 46.4 °F 41.1 °F 32.0 °F 57% 29.73 in 10.0 mi WNW 11.5 mph 19.6 mph N/A   Overcast
11:14 AM 46.4 °F 40.7 °F 30.2 °F 53% 29.74 in 10.0 mi WNW 12.7 mph 25.3 mph N/A   Mostly Cloudy
11:34 AM 46.4 °F 41.9 °F 30.2 °F 53% 29.74 in 10.0 mi West 9.2 mph 20.7 mph N/A   Overcast
11:54 AM 46.4 °F 40.4 °F 30.2 °F 53% 29.74 in 10.0 mi West 13.8 mph 23.0 mph N/A   Overcast
12:14 PM 46.4 °F 41.1 °F 30.2 °F 53% 29.74 in 10.0 mi West 11.5 mph 23.0 mph N/A   Overcast
12:34 PM 46.4 °F 41.1 °F 28.4 °F 50% 29.74 in 10.0 mi WNW 11.5 mph 23.0 mph N/A   Mostly Cloudy
12:54 PM 46.4 °F 41.1 °F 28.4 °F 50% 29.74 in 10.0 mi WNW 11.5 mph 24.2 mph N/A   Mostly Cloudy
1:14 PM 48.2 °F - 28.4 °F 46% 29.73 in 10.0 mi West 11.5 mph 21.9 mph N/A   Mostly Cloudy
1:34 PM 50.0 °F - 30.2 °F 47% 29.73 in 10.0 mi WNW 9.2 mph 24.2 mph N/A   Mostly Cloudy
1:54 PM 51.8 °F - 30.2 °F 44% 29.72 in 10.0 mi West 17.3 mph 24.2 mph N/A   Mostly Cloudy
2:14 PM 51.8 °F - 30.2 °F 44% 29.72 in 10.0 mi West 10.4 mph 21.9 mph N/A   Scattered Clouds
2:34 PM 51.8 °F - 30.2 °F 44% 29.72 in 10.0 mi WNW 9.2 mph 20.7 mph N/A   Scattered Clouds
3:14 PM 51.8 °F - 30.2 °F 44% 29.72 in 10.0 mi West 10.4 mph 20.7 mph N/A   Scattered Clouds
3:34 PM 48.2 °F - 30.2 °F 50% 29.72 in 10.0 mi West 9.2 mph 20.7 mph N/A   Scattered Clouds
3:54 PM 51.8 °F - 30.2 °F 44% 29.72 in 10.0 mi West 13.8 mph 24.2 mph N/A   Scattered Clouds
4:14 PM 51.8 °F - 30.2 °F 44% 29.72 in 10.0 mi West 11.5 mph 19.6 mph N/A   Scattered Clouds
4:34 PM 51.8 °F - 30.2 °F 44% 29.71 in 10.0 mi West 10.4 mph 19.6 mph N/A   Scattered Clouds
4:55 PM 50.0 °F - 30.2 °F 47% 29.72 in 10.0 mi WNW 11.5 mph 16.1 mph N/A   Scattered Clouds
5:14 PM 50.0 °F - 28.4 °F 43% 29.72 in 10.0 mi WNW 10.4 mph 19.6 mph N/A   Scattered Clouds
5:34 PM 48.2 °F - 28.4 °F 46% 29.72 in 10.0 mi West 4.6 mph - N/A   Clear
5:54 PM 48.2 °F - 30.2 °F 50% 29.72 in 10.0 mi WNW 10.4 mph 18.4 mph N/A   Clear
6:14 PM 48.2 °F - 30.2 °F 50% 29.72 in 10.0 mi West 6.9 mph - N/A   Clear
6:36 PM 46.4 °F 43.5 °F 30.2 °F 53% 29.72 in 10.0 mi West 5.8 mph - N/A   Clear
6:55 PM 46.4 °F 44.3 °F 30.2 °F 53% 29.73 in 10.0 mi West 4.6 mph - N/A   Clear
7:14 PM 44.6 °F 43.1 °F 30.2 °F 57% 29.73 in 10.0 mi West 3.5 mph - N/A   Clear
7:34 PM 44.6 °F 42.2 °F 30.2 °F 57% 29.73 in 10.0 mi West 4.6 mph - N/A   Clear
7:54 PM 44.6 °F 42.2 °F 30.2 °F 57% 29.74 in 10.0 mi West 4.6 mph - N/A   Clear
8:14 PM 44.6 °F 42.2 °F 30.2 °F 57% 29.73 in 10.0 mi West 4.6 mph - N/A   Clear
8:34 PM 44.6 °F 41.4 °F 30.2 °F 57% 29.73 in 10.0 mi West 5.8 mph - N/A   Clear
8:54 PM 44.6 °F 41.4 °F 30.2 °F 57% 29.72 in 10.0 mi WSW 5.8 mph - N/A   Clear
9:14 PM 42.8 °F 39.3 °F 30.2 °F 61% 29.73 in 10.0 mi WSW 5.8 mph - N/A   Clear
9:34 PM 42.8 °F 39.3 °F 30.2 °F 61% 29.73 in 10.0 mi WSW 5.8 mph - N/A   Clear
9:54 PM 41.0 °F 37.1 °F 30.2 °F 65% 29.73 in 10.0 mi WSW 5.8 mph - N/A   Clear
10:14 PM 37.4 °F 33.8 °F 30.2 °F 75% 29.72 in 10.0 mi WSW 4.6 mph - N/A   Clear
10:34 PM 37.4 °F 33.8 °F 30.2 °F 75% 29.72 in 10.0 mi WSW 4.6 mph - N/A   Clear
11:14 PM 39.2 °F 33.6 °F 32.0 °F 75% 29.72 in 10.0 mi WSW 8.1 mph - N/A   Clear
11:34 PM 39.2 °F 33.0 °F 32.0 °F 75% 29.72 in 10.0 mi WSW 9.2 mph - N/A   Clear
11:54 PM 39.2 °F 33.0 °F 32.0 °F 75% 29.71 in 10.0 mi WSW 9.2 mph - N/A   Clear